Regional Weather Roundup
Issued by NWS

Home | Current Version | Previous Version | Graphics & Text | Print | Product List | Glossary On
Versions: 1 2 3 4 5 6 7 8 9 10 11 12 13 14 15 16 17 18 19 20 21 22 23 24 25 26 27 28 29 30 31 32 33 34 35 36 37 38 39 40 41 42 43 44 45 46 47 48 49 50
000
ASUS43 KFSD 200702
RWRSD

WEATHER ROUNDUP FOR SOUTH DAKOTA
NATIONAL WEATHER SERVICE SIOUX FALLS SD
200 AM CDT MON OCT 20 2014

NOTE: "FAIR" INDICATES FEW OR NO CLOUDS BELOW 12,000 FEET WITH NO
SIGNIFICANT WEATHER AND/OR OBSTRUCTIONS TO VISIBILITY.


SDZ001>005-009-010-012>017-200800-
NORTHWEST AND NORTH CENTRAL SOUTH DAKOTA

CITY           SKY/WX    TMP DP  RH WIND       PRES   REMARKS
FAITH            N/A     53  36  52 SE10      30.06S
MOBRIDGE       CLEAR     40  36  86 CALM      30.03R
$$

SDZ012>016-024>037-041>051-057-063-072>074-200800-
SOUTHWEST AND SOUTH CENTRAL SOUTH DAKOTA

CITY           SKY/WX    TMP DP  RH WIND       PRES   REMARKS
RAPID CTY ARPT CLEAR     43  36  76 W5        30.09R
PIERRE         CLEAR     44  35  70 CALM      30.04R
CUSTER         CLEAR     39  34  82 NW3       30.17S
ELLSWORTH AFB  CLEAR     46  39  77 W7        30.08S
PHILIP         CLEAR     38  34  85 W6        30.07R
PINE RIDGE     CLEAR     35  32  88 CALM      30.10R
SPEARFISH      FAIR      41  37  87 SW8       30.08F HAZE
WINNER         FAIR      51  36  56 W6        30.06R
$$

SDZ004>011-016>023-039-040-200800-
NORTHEAST SOUTH DAKOTA

CITY           SKY/WX    TMP DP  RH WIND       PRES   REMARKS
ABERDEEN       CLEAR     43  36  76 NW3       30.01R
WATERTOWN      FAIR      41  39  93 SW3       29.99R
SISSETON         N/A     48  39  71 NW9       29.96R
$$

SDZ017-020-022-023-036>040-048>070-200800-
SOUTHEAST SOUTH DAKOTA

CITY           SKY/WX    TMP DP  RH WIND       PRES   REMARKS
SIOUX FALLS    FAIR      44  38  79 CALM      30.00R
HURON          CLEAR     36  32  85 NW3       30.02R
CHAMBERLAIN    CLEAR     42  35  75 CALM      30.05R
MITCHELL       CLEAR     45  37  73 W6        30.03R
YANKTON        FAIR      46  39  76 NW12      30.01R
$$

ABBREVIATIONS USED IN REMARKS
   TC - TEMPERATURE IN CELSIUS
  WCI - WIND CHILL INDEX
   HX - HEAT INDEX
  VSB - VISIBILITY




USA.gov is the U.S. government's official web portal to all federal, state and local government web resources and services.